St. Joseph, KS

1:05 AM CST on November 17, 2019 (GMT -0600)
Rosecrans Memorial

Weather History for KSTJ - October, 2019

Change the Weather History Date:

Monday, October 21, 2019

  Actual Average Record
Temperature  
Mean Temperature 51 °F 53 °F  
Max Temperature 58 °F 65 °F 88 °F (1979)
Min Temperature 44 °F 41 °F 20 °F (1982)
Degree Days  
Heating Degree Days 14 12  
Month to date heating degree days 206 194  
Since 1 July heating degree days 211 274  
Cooling Degree Days 0 0  
Month to date cooling degree days 17 18  
Year to date cooling degree days 1466 1217  
Moisture  
Dew Point 41 °F    
Average Humidity 76    
Maximum Humidity 100    
Minimum Humidity 51    
Precipitation  
Precipitation 0.00 in 0.09 in 1.88 in (2017)
Month to date precipitation 3.14 1.95  
Year to date precipitation 36.74 31.67  
Sea Level Pressure  
Sea Level Pressure 29.58 in    
Wind  
Wind Speed 14 mph (WSW)    
Max Wind Speed 29 mph    
Max Gust Speed 43 mph    
Visibility 9 miles    
Events      
T = Trace of Precipitation, MM = Missing Value Source: NWS Daily Summary

Daily Weather History Graph

Daily Weather History Graph

Search for Another Location

Airport or City:

Astronomy

Oct. 21, 2019 Rise Set
Actual Time 7:36 AM CDT 6:31 PM CDT
Civil Twilight 7:08 AM CDT 6:59 PM CDT
Nautical Twilight 6:37 AM CDT 7:30 PM CDT
Astronomical Twilight 6:05 AM CDT 8:01 PM CDT
Moon No Moon Rise 2:54 PM CDT (10/21)
Length of Visible Light 11h 50m
Length of Day
10h 55m
Waning Gibbous, 48% of the Moon is Illuminated
Oct 21
Waning Gibbous
Oct 27
New
Nov 4
First Quarter
Nov 12
Full
Nov 19
Last Quarter

Hourly Weather History & Observations

Time (CDT) Temp. Windchill Dew Point Humidity Pressure Visibility Wind Dir Wind Speed Gust Speed Precip Events Conditions
12:13 AM 57.0 °F - 53.1 °F 87% 29.62 in 3.0 mi WSW 5.8 mph 16.1 mph 0.08 in   Overcast
12:53 AM 55.9 °F - 54.0 °F 93% 29.55 in 6.0 mi NW 5.8 mph - 0.11 in   Overcast
1:53 AM 54.0 °F - 52.0 °F 93% 29.50 in 10.0 mi South 3.5 mph - N/A   Mostly Cloudy
2:53 AM 52.0 °F - 51.1 °F 97% 29.47 in 7.0 mi SSW 3.5 mph - N/A   Scattered Clouds
3:53 AM 52.0 °F - 50.0 °F 93% 29.47 in 10.0 mi SW 9.2 mph - N/A   Clear
4:53 AM 48.9 °F - 43.0 °F 80% 29.48 in 10.0 mi WSW 10.4 mph - N/A   Clear
5:53 AM 46.9 °F - 39.9 °F 77% 29.49 in 10.0 mi WSW 8.1 mph - N/A   Clear
6:53 AM 44.1 °F 39.0 °F 39.0 °F 82% 29.48 in 10.0 mi WSW 9.2 mph - N/A   Clear
7:53 AM 44.1 °F 37.7 °F 37.9 °F 79% 29.49 in 10.0 mi WSW 12.7 mph - N/A   Clear
8:53 AM 46.0 °F 40.2 °F 37.9 °F 73% 29.49 in 10.0 mi WSW 12.7 mph 21.9 mph N/A   Clear
9:53 AM 48.9 °F - 39.0 °F 69% 29.50 in 10.0 mi WSW 16.1 mph 25.3 mph N/A   Clear
10:53 AM 50.0 °F - 37.9 °F 63% 29.50 in 10.0 mi WSW 12.7 mph 27.6 mph N/A   Overcast
11:53 AM 51.1 °F - 37.0 °F 59% 29.51 in 10.0 mi West 15.0 mph 25.3 mph N/A   Overcast
12:53 PM 53.1 °F - 37.0 °F 55% 29.52 in 10.0 mi West 17.3 mph 34.5 mph N/A   Overcast
1:53 PM 54.0 °F - 37.0 °F 53% 29.54 in 10.0 mi WSW 19.6 mph 29.9 mph N/A   Overcast
2:53 PM 55.0 °F - 37.9 °F 53% 29.55 in 10.0 mi West 17.3 mph 33.4 mph N/A   Overcast
3:53 PM 55.0 °F - 39.9 °F 57% 29.59 in 10.0 mi West 12.7 mph 33.4 mph N/A   Overcast
4:53 PM 55.0 °F - 39.9 °F 57% 29.60 in 10.0 mi West 16.1 mph 33.4 mph N/A   Overcast
5:53 PM 54.0 °F - 37.9 °F 55% 29.64 in 10.0 mi West 16.1 mph 31.1 mph N/A   Overcast
6:53 PM 53.1 °F - 37.0 °F 55% 29.68 in 10.0 mi West 16.1 mph 28.8 mph N/A   Overcast
7:53 PM 52.0 °F - 37.9 °F 59% 29.71 in 10.0 mi West 20.7 mph 32.2 mph N/A   Overcast
8:53 PM 50.0 °F - 39.0 °F 66% 29.74 in 10.0 mi WNW 17.3 mph 35.7 mph N/A   Overcast
9:53 PM 48.9 °F - 39.0 °F 69% 29.77 in 10.0 mi West 17.3 mph 29.9 mph N/A   Overcast
10:53 PM 48.9 °F - 37.9 °F 66% 29.80 in 10.0 mi West 13.8 mph 27.6 mph N/A   Partly Cloudy
11:53 PM 48.0 °F - 37.9 °F 68% 29.81 in 10.0 mi West 19.6 mph 32.2 mph N/A   Scattered Clouds